owner,sensor,date,latitude,longitude,mass_concentration_of_chlorophyll_in_sea_water,qcFlag 
SCCF RECON,ioos:station:SCCF:13:1,2013-11-01T00:00:00Z,26.5255,-82.0032,3.4,1111122 
SCCF RECON,ioos:station:SCCF:13:1,2013-11-01T01:00:00Z,26.5255,-82.0032,3.13,1111122 
SCCF RECON,ioos:station:SCCF:13:1,2013-11-01T02:00:00Z,26.5255,-82.0032,2.99,1111122 
SCCF RECON,ioos:station:SCCF:13:1,2013-11-01T03:00:00Z,26.5255,-82.0032,2.96,1111122 
SCCF RECON,ioos:station:SCCF:13:1,2013-11-01T04:00:00Z,26.5255,-82.0032,2.61,1111122 
SCCF RECON,ioos:station:SCCF:13:1,2013-11-01T05:00:00Z,26.5255,-82.0032,2.49,1111122 
SCCF RECON,ioos:station:SCCF:13:1,2013-11-01T06:00:00Z,26.5255,-82.0032,2.7,1111122 
SCCF RECON,ioos:station:SCCF:13:1,2013-11-01T07:00:00Z,26.5255,-82.0032,2.29,1111122 
SCCF RECON,ioos:station:SCCF:13:1,2013-11-01T08:00:00Z,26.5255,-82.0032,2.77,1111122 
SCCF RECON,ioos:station:SCCF:13:1,2013-11-01T09:00:00Z,26.5255,-82.0032,3.68,1111122 
SCCF RECON,ioos:station:SCCF:13:1,2013-11-01T10:00:00Z,26.5255,-82.0032,3.96,1111122 
SCCF RECON,ioos:station:SCCF:13:1,2013-11-01T11:00:00Z,26.5255,-82.0032,4.09,1111122 
SCCF RECON,ioos:station:SCCF:13:1,2013-11-01T12:00:00Z,26.5255,-82.0032,4.26,1111122 
SCCF RECON,ioos:station:SCCF:13:1,2013-11-01T13:00:00Z,26.5255,-82.0032,4.66,1111122 
SCCF RECON,ioos:station:SCCF:13:1,2013-11-01T14:00:00Z,26.5255,-82.0032,3.56,1111122 
SCCF RECON,ioos:station:SCCF:13:1,2013-11-01T15:00:00Z,26.5255,-82.0032,3.11,1111122 
SCCF RECON,ioos:station:SCCF:13:1,2013-11-01T16:00:00Z,26.5255,-82.0032,2.5,1111122 
SCCF RECON,ioos:station:SCCF:13:1,2013-11-01T17:00:00Z,26.5255,-82.0032,2.3,1111122 
SCCF RECON,ioos:station:SCCF:13:1,2013-11-01T18:00:00Z,26.5255,-82.0032,2.47,1111122 
SCCF RECON,ioos:station:SCCF:13:1,2013-11-01T19:00:00Z,26.5255,-82.0032,2.6,1111122 
SCCF RECON,ioos:station:SCCF:13:1,2013-11-01T20:00:00Z,26.5255,-82.0032,2.52,1111122 
SCCF RECON,ioos:station:SCCF:13:1,2013-11-01T21:00:00Z,26.5255,-82.0032,2.94,1111122 
SCCF RECON,ioos:station:SCCF:13:1,2013-11-01T22:00:00Z,26.5255,-82.0032,3.86,1111122 
SCCF RECON,ioos:station:SCCF:13:1,2013-11-01T23:00:00Z,26.5255,-82.0032,4.51,1111122 
SCCF RECON,ioos:station:SCCF:13:1,2013-11-02T00:00:00Z,26.5255,-82.0032,4.7,1111122 
SCCF RECON,ioos:station:SCCF:13:1,2013-11-02T01:00:00Z,26.5255,-82.0032,3.45,1111122 
SCCF RECON,ioos:station:SCCF:13:1,2013-11-02T02:00:00Z,26.5255,-82.0032,3.1,1111122 
SCCF RECON,ioos:station:SCCF:13:1,2013-11-02T03:00:00Z,26.5255,-82.0032,3.02,1111122 
SCCF RECON,ioos:station:SCCF:13:1,2013-11-02T04:00:00Z,26.5255,-82.0032,3.12,1111122 
SCCF RECON,ioos:station:SCCF:13:1,2013-11-02T05:00:00Z,26.5255,-82.0032,2.71,1111122 
SCCF RECON,ioos:station:SCCF:13:1,2013-11-02T06:00:00Z,26.5255,-82.0032,2.46,1111122 
SCCF RECON,ioos:station:SCCF:13:1,2013-11-02T07:00:00Z,26.5255,-82.0032,2.54,1111122 
SCCF RECON,ioos:station:SCCF:13:1,2013-11-02T08:00:00Z,26.5255,-82.0032,2.33,1111122 
SCCF RECON,ioos:station:SCCF:13:1,2013-11-02T09:00:00Z,26.5255,-82.0032,2.85,1111122 
SCCF RECON,ioos:station:SCCF:13:1,2013-11-02T10:00:00Z,26.5255,-82.0032,3.53,1111122 
SCCF RECON,ioos:station:SCCF:13:1,2013-11-02T11:00:00Z,26.5255,-82.0032,3.78,1111122 
SCCF RECON,ioos:station:SCCF:13:1,2013-11-02T12:00:00Z,26.5255,-82.0032,3.98,1111122 
SCCF RECON,ioos:station:SCCF:13:1,2013-11-02T13:00:00Z,26.5255,-82.0032,4.28,1111122 
SCCF RECON,ioos:station:SCCF:13:1,2013-11-02T14:00:00Z,26.5255,-82.0032,4.21,1111122 
SCCF RECON,ioos:station:SCCF:13:1,2013-11-02T15:00:00Z,26.5255,-82.0032,3.19,1111122 
SCCF RECON,ioos:station:SCCF:13:1,2013-11-02T16:00:00Z,26.5255,-82.0032,2.76,1111122 
SCCF RECON,ioos:station:SCCF:13:1,2013-11-02T17:00:00Z,26.5255,-82.0032,2.54,1111122 
SCCF RECON,ioos:station:SCCF:13:1,2013-11-02T18:00:00Z,26.5255,-82.0032,2.69,1111122 
SCCF RECON,ioos:station:SCCF:13:1,2013-11-02T19:00:00Z,26.5255,-82.0032,3.19,1111122 
SCCF RECON,ioos:station:SCCF:13:1,2013-11-02T20:00:00Z,26.5255,-82.0032,2.84,1111122 
SCCF RECON,ioos:station:SCCF:13:1,2013-11-02T21:00:00Z,26.5255,-82.0032,3.39,1111122 
SCCF RECON,ioos:station:SCCF:13:1,2013-11-02T22:00:00Z,26.5255,-82.0032,4.91,1111122 
SCCF RECON,ioos:station:SCCF:13:1,2013-11-02T23:00:00Z,26.5255,-82.0032,5.73,1111122 
SCCF RECON,ioos:station:SCCF:13:1,2013-11-03T00:00:00Z,26.5255,-82.0032,5.52,1111122 
SCCF RECON,ioos:station:SCCF:13:1,2013-11-03T01:00:00Z,26.5255,-82.0032,5.35,1111122 
SCCF RECON,ioos:station:SCCF:13:1,2013-11-03T02:00:00Z,26.5255,-82.0032,5.07,1111122 
SCCF RECON,ioos:station:SCCF:13:1,2013-11-03T03:00:00Z,26.5255,-82.0032,3.79,1111122 
SCCF RECON,ioos:station:SCCF:13:1,2013-11-03T04:00:00Z,26.5255,-82.0032,3.51,1111122 
SCCF RECON,ioos:station:SCCF:13:1,2013-11-03T05:00:00Z,26.5255,-82.0032,3.4,1111122 
SCCF RECON,ioos:station:SCCF:13:1,2013-11-03T06:00:00Z,26.5255,-82.0032,3.21,1111122 
SCCF RECON,ioos:station:SCCF:13:1,2013-11-03T07:00:00Z,26.5255,-82.0032,3.12,1111122 
SCCF RECON,ioos:station:SCCF:13:1,2013-11-03T08:00:00Z,26.5255,-82.0032,3.0,1111122 
SCCF RECON,ioos:station:SCCF:13:1,2013-11-03T09:00:00Z,26.5255,-82.0032,3.08,1111122 
SCCF RECON,ioos:station:SCCF:13:1,2013-11-03T10:00:00Z,26.5255,-82.0032,3.81,1111122 
SCCF RECON,ioos:station:SCCF:13:1,2013-11-03T11:00:00Z,26.5255,-82.0032,4.23,1111122 
SCCF RECON,ioos:station:SCCF:13:1,2013-11-03T12:00:00Z,26.5255,-82.0032,4.69,1111122 
SCCF RECON,ioos:station:SCCF:13:1,2013-11-03T13:00:00Z,26.5255,-82.0032,4.63,1111122 
SCCF RECON,ioos:station:SCCF:13:1,2013-11-03T14:00:00Z,26.5255,-82.0032,4.75,1111122 
SCCF RECON,ioos:station:SCCF:13:1,2013-11-03T15:00:00Z,26.5255,-82.0032,4.91,1111122 
SCCF RECON,ioos:station:SCCF:13:1,2013-11-03T16:00:00Z,26.5255,-82.0032,5.01,1111122 
SCCF RECON,ioos:station:SCCF:13:1,2013-11-03T17:00:00Z,26.5255,-82.0032,4.18,1111122 
SCCF RECON,ioos:station:SCCF:13:1,2013-11-03T18:00:00Z,26.5255,-82.0032,3.77,1111122 
SCCF RECON,ioos:station:SCCF:13:1,2013-11-03T19:00:00Z,26.5255,-82.0032,3.52,1111122 
SCCF RECON,ioos:station:SCCF:13:1,2013-11-03T20:00:00Z,26.5255,-82.0032,3.53,1111122 
SCCF RECON,ioos:station:SCCF:13:1,2013-11-03T21:00:00Z,26.5255,-82.0032,3.57,1111122 
SCCF RECON,ioos:station:SCCF:13:1,2013-11-03T22:00:00Z,26.5255,-82.0032,4.41,1111122 
SCCF RECON,ioos:station:SCCF:13:1,2013-11-03T23:00:00Z,26.5255,-82.0032,4.38,1111122 
SCCF RECON,ioos:station:SCCF:13:1,2013-11-04T00:00:00Z,26.5255,-82.0032,4.08,1111122 
SCCF RECON,ioos:station:SCCF:13:1,2013-11-04T01:00:00Z,26.5255,-82.0032,4.1,1111122 
SCCF RECON,ioos:station:SCCF:13:1,2013-11-04T02:00:00Z,26.5255,-82.0032,3.29,1111122 
SCCF RECON,ioos:station:SCCF:13:1,2013-11-04T03:00:00Z,26.5255,-82.0032,3.55,1111122 
SCCF RECON,ioos:station:SCCF:13:1,2013-11-04T04:00:00Z,26.5255,-82.0032,3.81,1111122 
SCCF RECON,ioos:station:SCCF:13:1,2013-11-04T05:00:00Z,26.5255,-82.0032,3.38,1111122 
SCCF RECON,ioos:station:SCCF:13:1,2013-11-04T06:00:00Z,26.5255,-82.0032,3.25,1111122 
SCCF RECON,ioos:station:SCCF:13:1,2013-11-04T07:00:00Z,26.5255,-82.0032,3.27,1111122 
SCCF RECON,ioos:station:SCCF:13:1,2013-11-04T08:00:00Z,26.5255,-82.0032,3.35,1111122 
SCCF RECON,ioos:station:SCCF:13:1,2013-11-04T09:00:00Z,26.5255,-82.0032,3.05,1111122 
SCCF RECON,ioos:station:SCCF:13:1,2013-11-04T10:00:00Z,26.5255,-82.0032,4.37,1111122 
SCCF RECON,ioos:station:SCCF:13:1,2013-11-04T11:00:00Z,26.5255,-82.0032,3.92,1111122 
SCCF RECON,ioos:station:SCCF:13:1,2013-11-04T12:00:00Z,26.5255,-82.0032,4.07,1111122 
SCCF RECON,ioos:station:SCCF:13:1,2013-11-04T13:00:00Z,26.5255,-82.0032,4.09,1111122 
SCCF RECON,ioos:station:SCCF:13:1,2013-11-04T14:00:00Z,26.5255,-82.0032,4.07,1111122 
SCCF RECON,ioos:station:SCCF:13:1,2013-11-04T15:00:00Z,26.5255,-82.0032,4.31,1111122 
SCCF RECON,ioos:station:SCCF:13:1,2013-11-04T16:00:00Z,26.5255,-82.0032,4.35,1111122 
SCCF RECON,ioos:station:SCCF:13:1,2013-11-04T17:00:00Z,26.5255,-82.0032,3.71,1111122 
SCCF RECON,ioos:station:SCCF:13:1,2013-11-04T18:00:00Z,26.5255,-82.0032,3.66,1111122 
SCCF RECON,ioos:station:SCCF:13:1,2013-11-04T19:00:00Z,26.5255,-82.0032,3.67,1111122 
SCCF RECON,ioos:station:SCCF:13:1,2013-11-04T20:00:00Z,26.5255,-82.0032,3.63,1111122 
SCCF RECON,ioos:station:SCCF:13:1,2013-11-04T21:00:00Z,26.5255,-82.0032,3.7,1111122 
SCCF RECON,ioos:station:SCCF:13:1,2013-11-04T22:00:00Z,26.5255,-82.0032,4.24,1111122 
SCCF RECON,ioos:station:SCCF:13:1,2013-11-04T23:00:00Z,26.5255,-82.0032,4.79,1111122 
SCCF RECON,ioos:station:SCCF:13:1,2013-11-05T00:00:00Z,26.5255,-82.0032,4.6,1111122 
SCCF RECON,ioos:station:SCCF:13:1,2013-11-05T01:00:00Z,26.5255,-82.0032,4.13,1111122 
SCCF RECON,ioos:station:SCCF:13:1,2013-11-05T02:00:00Z,26.5255,-82.0032,4.2,1111122 
SCCF RECON,ioos:station:SCCF:13:1,2013-11-05T03:00:00Z,26.5255,-82.0032,3.35,1111122 
SCCF RECON,ioos:station:SCCF:13:1,2013-11-05T04:00:00Z,26.5255,-82.0032,3.85,1111122 
SCCF RECON,ioos:station:SCCF:13:1,2013-11-05T05:00:00Z,26.5255,-82.0032,3.68,1111122 
SCCF RECON,ioos:station:SCCF:13:1,2013-11-05T06:00:00Z,26.5255,-82.0032,3.4,1111122 
SCCF RECON,ioos:station:SCCF:13:1,2013-11-05T07:00:00Z,26.5255,-82.0032,3.05,1111122 
SCCF RECON,ioos:station:SCCF:13:1,2013-11-05T08:00:00Z,26.5255,-82.0032,3.33,1111122 
SCCF RECON,ioos:station:SCCF:13:1,2013-11-05T09:00:00Z,26.5255,-82.0032,2.99,1111122 
SCCF RECON,ioos:station:SCCF:13:1,2013-11-05T10:00:00Z,26.5255,-82.0032,3.14,1111122 
SCCF RECON,ioos:station:SCCF:13:1,2013-11-05T11:00:00Z,26.5255,-82.0032,4.08,1111122 
SCCF RECON,ioos:station:SCCF:13:1,2013-11-05T12:00:00Z,26.5255,-82.0032,3.76,1111122 
SCCF RECON,ioos:station:SCCF:13:1,2013-11-05T13:00:00Z,26.5255,-82.0032,3.82,1111122 
SCCF RECON,ioos:station:SCCF:13:1,2013-11-05T14:00:00Z,26.5255,-82.0032,3.93,1111122 
SCCF RECON,ioos:station:SCCF:13:1,2013-11-05T15:00:00Z,26.5255,-82.0032,4.07,1111122 
SCCF RECON,ioos:station:SCCF:13:1,2013-11-05T16:00:00Z,26.5255,-82.0032,4.21,1111122 
SCCF RECON,ioos:station:SCCF:13:1,2013-11-05T17:00:00Z,26.5255,-82.0032,3.89,1111122 
SCCF RECON,ioos:station:SCCF:13:1,2013-11-05T18:00:00Z,26.5255,-82.0032,3.78,1111122 
SCCF RECON,ioos:station:SCCF:13:1,2013-11-05T19:00:00Z,26.5255,-82.0032,3.39,1111122 
SCCF RECON,ioos:station:SCCF:13:1,2013-11-05T20:00:00Z,26.5255,-82.0032,3.66,1111122 
SCCF RECON,ioos:station:SCCF:13:1,2013-11-05T21:00:00Z,26.5255,-82.0032,3.58,1111122 
SCCF RECON,ioos:station:SCCF:13:1,2013-11-05T22:00:00Z,26.5255,-82.0032,3.67,1111122 
SCCF RECON,ioos:station:SCCF:13:1,2013-11-05T23:00:00Z,26.5255,-82.0032,3.98,1111122 
SCCF RECON,ioos:station:SCCF:13:1,2013-11-06T00:00:00Z,26.5255,-82.0032,3.83,1111122 
SCCF RECON,ioos:station:SCCF:13:1,2013-11-06T01:00:00Z,26.5255,-82.0032,3.71,1111122 
SCCF RECON,ioos:station:SCCF:13:1,2013-11-06T02:00:00Z,26.5255,-82.0032,3.53,1111122 
SCCF RECON,ioos:station:SCCF:13:1,2013-11-06T03:00:00Z,26.5255,-82.0032,3.17,1111122 
SCCF RECON,ioos:station:SCCF:13:1,2013-11-06T04:00:00Z,26.5255,-82.0032,3.25,1111122 
SCCF RECON,ioos:station:SCCF:13:1,2013-11-06T05:00:00Z,26.5255,-82.0032,3.24,1111122 
SCCF RECON,ioos:station:SCCF:13:1,2013-11-06T06:00:00Z,26.5255,-82.0032,3.04,1111122 
SCCF RECON,ioos:station:SCCF:13:1,2013-11-06T07:00:00Z,26.5255,-82.0032,2.81,1111122 
SCCF RECON,ioos:station:SCCF:13:1,2013-11-06T08:00:00Z,26.5255,-82.0032,2.74,1111122 
SCCF RECON,ioos:station:SCCF:13:1,2013-11-06T09:00:00Z,26.5255,-82.0032,2.81,1111122 
SCCF RECON,ioos:station:SCCF:13:1,2013-11-06T10:00:00Z,26.5255,-82.0032,2.86,1111122 
SCCF RECON,ioos:station:SCCF:13:1,2013-11-06T11:00:00Z,26.5255,-82.0032,2.68,1111122 
SCCF RECON,ioos:station:SCCF:13:1,2013-11-06T12:00:00Z,26.5255,-82.0032,3.48,1111122 
SCCF RECON,ioos:station:SCCF:13:1,2013-11-06T13:00:00Z,26.5255,-82.0032,3.25,1111122 
SCCF RECON,ioos:station:SCCF:13:1,2013-11-06T14:00:00Z,26.5255,-82.0032,3.4,1111122 
SCCF RECON,ioos:station:SCCF:13:1,2013-11-06T15:00:00Z,26.5255,-82.0032,3.42,1111122 
SCCF RECON,ioos:station:SCCF:13:1,2013-11-06T16:00:00Z,26.5255,-82.0032,3.74,1111122 
SCCF RECON,ioos:station:SCCF:13:1,2013-11-06T17:00:00Z,26.5255,-82.0032,4.16,1111122 
SCCF RECON,ioos:station:SCCF:13:1,2013-11-06T18:00:00Z,26.5255,-82.0032,3.23,1111122 
SCCF RECON,ioos:station:SCCF:13:1,2013-11-06T19:00:00Z,26.5255,-82.0032,3.34,1111122 
SCCF RECON,ioos:station:SCCF:13:1,2013-11-06T20:00:00Z,26.5255,-82.0032,3.35,1111122 
SCCF RECON,ioos:station:SCCF:13:1,2013-11-06T21:00:00Z,26.5255,-82.0032,3.43,1111122 
SCCF RECON,ioos:station:SCCF:13:1,2013-11-06T22:00:00Z,26.5255,-82.0032,3.7,1111122 
SCCF RECON,ioos:station:SCCF:13:1,2013-11-06T23:00:00Z,26.5255,-82.0032,3.54,1111122 
SCCF RECON,ioos:station:SCCF:13:1,2013-11-07T00:00:00Z,26.5255,-82.0032,3.76,1111122 
SCCF RECON,ioos:station:SCCF:13:1,2013-11-07T01:00:00Z,26.5255,-82.0032,3.3,1111122 
SCCF RECON,ioos:station:SCCF:13:1,2013-11-07T02:00:00Z,26.5255,-82.0032,3.21,1111122 
SCCF RECON,ioos:station:SCCF:13:1,2013-11-07T03:00:00Z,26.5255,-82.0032,3.12,1111122 
SCCF RECON,ioos:station:SCCF:13:1,2013-11-07T04:00:00Z,26.5255,-82.0032,2.69,1111122 
SCCF RECON,ioos:station:SCCF:13:1,2013-11-07T05:00:00Z,26.5255,-82.0032,2.92,1111122 
SCCF RECON,ioos:station:SCCF:13:1,2013-11-07T06:00:00Z,26.5255,-82.0032,3.2,1111122 
SCCF RECON,ioos:station:SCCF:13:1,2013-11-07T07:00:00Z,26.5255,-82.0032,2.92,1111122 
SCCF RECON,ioos:station:SCCF:13:1,2013-11-07T08:00:00Z,26.5255,-82.0032,2.61,1111122 
SCCF RECON,ioos:station:SCCF:13:1,2013-11-07T09:00:00Z,26.5255,-82.0032,2.48,1111122 
SCCF RECON,ioos:station:SCCF:13:1,2013-11-07T10:00:00Z,26.5255,-82.0032,2.51,1111122 
SCCF RECON,ioos:station:SCCF:13:1,2013-11-07T11:00:00Z,26.5255,-82.0032,2.3,1111122 
SCCF RECON,ioos:station:SCCF:13:1,2013-11-07T12:00:00Z,26.5255,-82.0032,3.29,1111122 
SCCF RECON,ioos:station:SCCF:13:1,2013-11-07T13:00:00Z,26.5255,-82.0032,3.23,1111122 
SCCF RECON,ioos:station:SCCF:13:1,2013-11-07T14:00:00Z,26.5255,-82.0032,3.3,1111122 
SCCF RECON,ioos:station:SCCF:13:1,2013-11-07T15:00:00Z,26.5255,-82.0032,3.39,1111122 
SCCF RECON,ioos:station:SCCF:13:1,2013-11-07T16:00:00Z,26.5255,-82.0032,3.58,1111122 
SCCF RECON,ioos:station:SCCF:13:1,2013-11-07T17:00:00Z,26.5255,-82.0032,4.04,1111122 
SCCF RECON,ioos:station:SCCF:13:1,2013-11-07T18:00:00Z,26.5255,-82.0032,4.93,1111122 
SCCF RECON,ioos:station:SCCF:13:1,2013-11-07T19:00:00Z,26.5255,-82.0032,3.87,1111122 
SCCF RECON,ioos:station:SCCF:13:1,2013-11-07T20:00:00Z,26.5255,-82.0032,3.79,1111122 
SCCF RECON,ioos:station:SCCF:13:1,2013-11-07T21:00:00Z,26.5255,-82.0032,3.86,1111122 
SCCF RECON,ioos:station:SCCF:13:1,2013-11-07T22:00:00Z,26.5255,-82.0032,3.7,1111122 
SCCF RECON,ioos:station:SCCF:13:1,2013-11-07T23:00:00Z,26.5255,-82.0032,3.63,1111122 
SCCF RECON,ioos:station:SCCF:13:1,2013-11-08T00:00:00Z,26.5255,-82.0032,3.6,1111122 
SCCF RECON,ioos:station:SCCF:13:1,2013-11-08T01:00:00Z,26.5255,-82.0032,3.47,1111122 
SCCF RECON,ioos:station:SCCF:13:1,2013-11-08T02:00:00Z,26.5255,-82.0032,3.16,1111122 
SCCF RECON,ioos:station:SCCF:13:1,2013-11-08T03:00:00Z,26.5255,-82.0032,3.58,1111122 
SCCF RECON,ioos:station:SCCF:13:1,2013-11-08T04:00:00Z,26.5255,-82.0032,4.01,1111122 
SCCF RECON,ioos:station:SCCF:13:1,2013-11-08T05:00:00Z,26.5255,-82.0032,3.72,1111122 
SCCF RECON,ioos:station:SCCF:13:1,2013-11-08T06:00:00Z,26.5255,-82.0032,2.97,1111122 
SCCF RECON,ioos:station:SCCF:13:1,2013-11-08T07:00:00Z,26.5255,-82.0032,2.88,1111122 
SCCF RECON,ioos:station:SCCF:13:1,2013-11-08T08:00:00Z,26.5255,-82.0032,2.99,1111122 
SCCF RECON,ioos:station:SCCF:13:1,2013-11-08T09:00:00Z,26.5255,-82.0032,2.89,1111122 
SCCF RECON,ioos:station:SCCF:13:1,2013-11-08T10:00:00Z,26.5255,-82.0032,2.55,1111122 
SCCF RECON,ioos:station:SCCF:13:1,2013-11-08T11:00:00Z,26.5255,-82.0032,2.65,1111122 
SCCF RECON,ioos:station:SCCF:13:1,2013-11-08T12:00:00Z,26.5255,-82.0032,2.54,1111122 
SCCF RECON,ioos:station:SCCF:13:1,2013-11-08T13:00:00Z,26.5255,-82.0032,3.67,1111122 
SCCF RECON,ioos:station:SCCF:13:1,2013-11-08T14:00:00Z,26.5255,-82.0032,3.67,1111122 
SCCF RECON,ioos:station:SCCF:13:1,2013-11-08T15:00:00Z,26.5255,-82.0032,3.83,1111122 
SCCF RECON,ioos:station:SCCF:13:1,2013-11-08T16:00:00Z,26.5255,-82.0032,3.89,1111122 
SCCF RECON,ioos:station:SCCF:13:1,2013-11-08T17:00:00Z,26.5255,-82.0032,4.16,1111122 
SCCF RECON,ioos:station:SCCF:13:1,2013-11-08T18:00:00Z,26.5255,-82.0032,4.63,1111122 
SCCF RECON,ioos:station:SCCF:13:1,2013-11-08T19:00:00Z,26.5255,-82.0032,5.34,1111122 
SCCF RECON,ioos:station:SCCF:13:1,2013-11-08T20:00:00Z,26.5255,-82.0032,4.81,1111122 
SCCF RECON,ioos:station:SCCF:13:1,2013-11-08T21:00:00Z,26.5255,-82.0032,4.03,1111122 
SCCF RECON,ioos:station:SCCF:13:1,2013-11-08T22:00:00Z,26.5255,-82.0032,4.03,1111122 
SCCF RECON,ioos:station:SCCF:13:1,2013-11-08T23:00:00Z,26.5255,-82.0032,3.74,1111122 
SCCF RECON,ioos:station:SCCF:13:1,2013-11-09T00:00:00Z,26.5255,-82.0032,3.62,1111122 
SCCF RECON,ioos:station:SCCF:13:1,2013-11-09T01:00:00Z,26.5255,-82.0032,3.61,1111122 
SCCF RECON,ioos:station:SCCF:13:1,2013-11-09T02:00:00Z,26.5255,-82.0032,3.58,1111122 
SCCF RECON,ioos:station:SCCF:13:1,2013-11-09T03:00:00Z,26.5255,-82.0032,3.33,1111122 
SCCF RECON,ioos:station:SCCF:13:1,2013-11-09T04:00:00Z,26.5255,-82.0032,4.14,1111122 
SCCF RECON,ioos:station:SCCF:13:1,2013-11-09T05:00:00Z,26.5255,-82.0032,4.66,1111122 
SCCF RECON,ioos:station:SCCF:13:1,2013-11-09T06:00:00Z,26.5255,-82.0032,4.41,1111122 
SCCF RECON,ioos:station:SCCF:13:1,2013-11-09T07:00:00Z,26.5255,-82.0032,3.41,1111122 
SCCF RECON,ioos:station:SCCF:13:1,2013-11-09T08:00:00Z,26.5255,-82.0032,3.14,1111122 
SCCF RECON,ioos:station:SCCF:13:1,2013-11-09T09:00:00Z,26.5255,-82.0032,3.01,1111122 
SCCF RECON,ioos:station:SCCF:13:1,2013-11-09T10:00:00Z,26.5255,-82.0032,2.92,1111122 
SCCF RECON,ioos:station:SCCF:13:1,2013-11-09T11:00:00Z,26.5255,-82.0032,2.78,1111122 
SCCF RECON,ioos:station:SCCF:13:1,2013-11-09T12:00:00Z,26.5255,-82.0032,2.51,1111122 
SCCF RECON,ioos:station:SCCF:13:1,2013-11-09T13:00:00Z,26.5255,-82.0032,2.34,1111122 
SCCF RECON,ioos:station:SCCF:13:1,2013-11-09T14:00:00Z,26.5255,-82.0032,2.61,1111122 
SCCF RECON,ioos:station:SCCF:13:1,2013-11-09T15:00:00Z,26.5255,-82.0032,3.78,1111122 
SCCF RECON,ioos:station:SCCF:13:1,2013-11-09T16:00:00Z,26.5255,-82.0032,3.67,1111122 
SCCF RECON,ioos:station:SCCF:13:1,2013-11-09T17:00:00Z,26.5255,-82.0032,4.02,1111122 
SCCF RECON,ioos:station:SCCF:13:1,2013-11-09T18:00:00Z,26.5255,-82.0032,4.31,1111122 
SCCF RECON,ioos:station:SCCF:13:1,2013-11-09T19:00:00Z,26.5255,-82.0032,4.74,1111122 
SCCF RECON,ioos:station:SCCF:13:1,2013-11-09T20:00:00Z,26.5255,-82.0032,4.9,1111122 
SCCF RECON,ioos:station:SCCF:13:1,2013-11-09T21:00:00Z,26.5255,-82.0032,3.61,1111122 
SCCF RECON,ioos:station:SCCF:13:1,2013-11-09T22:00:00Z,26.5255,-82.0032,3.37,1111122 
SCCF RECON,ioos:station:SCCF:13:1,2013-11-09T23:00:00Z,26.5255,-82.0032,3.28,1111122 
SCCF RECON,ioos:station:SCCF:13:1,2013-11-10T00:00:00Z,26.5255,-82.0032,3.37,1111122 
SCCF RECON,ioos:station:SCCF:13:1,2013-11-10T01:00:00Z,26.5255,-82.0032,3.2,1111122 
SCCF RECON,ioos:station:SCCF:13:1,2013-11-10T02:00:00Z,26.5255,-82.0032,3.07,1111122 
SCCF RECON,ioos:station:SCCF:13:1,2013-11-10T03:00:00Z,26.5255,-82.0032,3.03,1111122 
SCCF RECON,ioos:station:SCCF:13:1,2013-11-10T04:00:00Z,26.5255,-82.0032,3.07,1111122 
SCCF RECON,ioos:station:SCCF:13:1,2013-11-10T05:00:00Z,26.5255,-82.0032,3.06,1111122 
SCCF RECON,ioos:station:SCCF:13:1,2013-11-10T06:00:00Z,26.5255,-82.0032,2.79,1111122 
SCCF RECON,ioos:station:SCCF:13:1,2013-11-10T07:00:00Z,26.5255,-82.0032,3.09,1111122 
SCCF RECON,ioos:station:SCCF:13:1,2013-11-10T08:00:00Z,26.5255,-82.0032,2.76,1111122 
SCCF RECON,ioos:station:SCCF:13:1,2013-11-10T09:00:00Z,26.5255,-82.0032,2.61,1111122 
SCCF RECON,ioos:station:SCCF:13:1,2013-11-10T10:00:00Z,26.5255,-82.0032,2.63,1111122 
SCCF RECON,ioos:station:SCCF:13:1,2013-11-10T11:00:00Z,26.5255,-82.0032,2.54,1111122 
SCCF RECON,ioos:station:SCCF:13:1,2013-11-10T12:00:00Z,26.5255,-82.0032,2.27,1111122 
SCCF RECON,ioos:station:SCCF:13:1,2013-11-10T13:00:00Z,26.5255,-82.0032,2.08,1111122 
SCCF RECON,ioos:station:SCCF:13:1,2013-11-10T14:00:00Z,26.5255,-82.0032,2.26,1111122 
SCCF RECON,ioos:station:SCCF:13:1,2013-11-10T15:00:00Z,26.5255,-82.0032,2.28,1111122 
SCCF RECON,ioos:station:SCCF:13:1,2013-11-10T16:00:00Z,26.5255,-82.0032,3.01,1111122 
SCCF RECON,ioos:station:SCCF:13:1,2013-11-10T17:00:00Z,26.5255,-82.0032,3.44,1111122 
SCCF RECON,ioos:station:SCCF:13:1,2013-11-10T18:00:00Z,26.5255,-82.0032,3.59,1111122 
SCCF RECON,ioos:station:SCCF:13:1,2013-11-10T19:00:00Z,26.5255,-82.0032,3.93,1111122 
SCCF RECON,ioos:station:SCCF:13:1,2013-11-10T20:00:00Z,26.5255,-82.0032,4.23,1111122 
SCCF RECON,ioos:station:SCCF:13:1,2013-11-10T21:00:00Z,26.5255,-82.0032,4.65,1111122 
SCCF RECON,ioos:station:SCCF:13:1,2013-11-10T22:00:00Z,26.5255,-82.0032,3.46,1111122 
SCCF RECON,ioos:station:SCCF:13:1,2013-11-10T23:00:00Z,26.5255,-82.0032,3.13,1111122 
SCCF RECON,ioos:station:SCCF:13:1,2013-11-11T00:00:00Z,26.5255,-82.0032,3.15,1111122 
SCCF RECON,ioos:station:SCCF:13:1,2013-11-11T01:00:00Z,26.5255,-82.0032,2.99,1111122 
SCCF RECON,ioos:station:SCCF:13:1,2013-11-11T02:00:00Z,26.5255,-82.0032,2.87,1111122 
SCCF RECON,ioos:station:SCCF:13:1,2013-11-11T03:00:00Z,26.5255,-82.0032,2.87,1111122 
SCCF RECON,ioos:station:SCCF:13:1,2013-11-11T04:00:00Z,26.5255,-82.0032,3.07,1111122 
SCCF RECON,ioos:station:SCCF:13:1,2013-11-11T05:00:00Z,26.5255,-82.0032,2.81,1111122 
SCCF RECON,ioos:station:SCCF:13:1,2013-11-11T06:00:00Z,26.5255,-82.0032,3.55,1111122 
SCCF RECON,ioos:station:SCCF:13:1,2013-11-11T07:00:00Z,26.5255,-82.0032,3.76,1111122 
SCCF RECON,ioos:station:SCCF:13:1,2013-11-11T08:00:00Z,26.5255,-82.0032,3.68,1111122 
SCCF RECON,ioos:station:SCCF:13:1,2013-11-11T09:00:00Z,26.5255,-82.0032,3.96,1111122 
SCCF RECON,ioos:station:SCCF:13:1,2013-11-11T10:00:00Z,26.5255,-82.0032,3.68,1111122 
SCCF RECON,ioos:station:SCCF:13:1,2013-11-11T11:00:00Z,26.5255,-82.0032,2.61,1111122 
SCCF RECON,ioos:station:SCCF:13:1,2013-11-11T12:00:00Z,26.5255,-82.0032,2.65,1111122 
SCCF RECON,ioos:station:SCCF:13:1,2013-11-11T13:00:00Z,26.5255,-82.0032,2.52,1111122 
SCCF RECON,ioos:station:SCCF:13:1,2013-11-11T14:00:00Z,26.5255,-82.0032,2.35,1111122 
SCCF RECON,ioos:station:SCCF:13:1,2013-11-11T15:00:00Z,26.5255,-82.0032,2.17,1111122 
SCCF RECON,ioos:station:SCCF:13:1,2013-11-11T16:00:00Z,26.5255,-82.0032,2.56,1111122 
SCCF RECON,ioos:station:SCCF:13:1,2013-11-11T17:00:00Z,26.5255,-82.0032,2.66,1111122 
SCCF RECON,ioos:station:SCCF:13:1,2013-11-11T18:00:00Z,26.5255,-82.0032,3.52,1111122 
SCCF RECON,ioos:station:SCCF:13:1,2013-11-11T19:00:00Z,26.5255,-82.0032,3.89,1111122 
SCCF RECON,ioos:station:SCCF:13:1,2013-11-11T20:00:00Z,26.5255,-82.0032,4.54,1111122 
SCCF RECON,ioos:station:SCCF:13:1,2013-11-11T21:00:00Z,26.5255,-82.0032,4.98,1111122 
SCCF RECON,ioos:station:SCCF:13:1,2013-11-11T22:00:00Z,26.5255,-82.0032,4.15,1111122 
SCCF RECON,ioos:station:SCCF:13:1,2013-11-11T23:00:00Z,26.5255,-82.0032,3.78,1111122 
SCCF RECON,ioos:station:SCCF:13:1,2013-11-12T00:00:00Z,26.5255,-82.0032,3.25,1111122 
SCCF RECON,ioos:station:SCCF:13:1,2013-11-12T01:00:00Z,26.5255,-82.0032,3.47,1111122 
SCCF RECON,ioos:station:SCCF:13:1,2013-11-12T02:00:00Z,26.5255,-82.0032,3.25,1111122 
SCCF RECON,ioos:station:SCCF:13:1,2013-11-12T03:00:00Z,26.5255,-82.0032,3.48,1111122 
SCCF RECON,ioos:station:SCCF:13:1,2013-11-12T04:00:00Z,26.5255,-82.0032,3.59,1111122 
SCCF RECON,ioos:station:SCCF:13:1,2013-11-12T05:00:00Z,26.5255,-82.0032,3.55,1111122 
SCCF RECON,ioos:station:SCCF:13:1,2013-11-12T06:00:00Z,26.5255,-82.0032,2.95,1111122 
SCCF RECON,ioos:station:SCCF:13:1,2013-11-12T07:00:00Z,26.5255,-82.0032,3.38,1111122 
SCCF RECON,ioos:station:SCCF:13:1,2013-11-12T08:00:00Z,26.5255,-82.0032,3.54,1111122 
SCCF RECON,ioos:station:SCCF:13:1,2013-11-12T09:00:00Z,26.5255,-82.0032,3.65,1111122 
SCCF RECON,ioos:station:SCCF:13:1,2013-11-12T10:00:00Z,26.5255,-82.0032,3.82,1111122 
SCCF RECON,ioos:station:SCCF:13:1,2013-11-12T11:00:00Z,26.5255,-82.0032,3.02,1111122 
SCCF RECON,ioos:station:SCCF:13:1,2013-11-12T12:00:00Z,26.5255,-82.0032,2.62,1111122 
SCCF RECON,ioos:station:SCCF:13:1,2013-11-12T13:00:00Z,26.5255,-82.0032,2.51,1111122 